RYR9XE EFHK-EPMO

Flight info

Callsign RYR9XE
Flight time N/A
Altitude 38000
Route KOIVU Y123 LARTI DCT LUTAL DCT BERIL/N0431F370 DCT BOKSU/N0431F380 M857 NORNO DCT BULEP M857 GERVI P851 NEPOX
Aircraft B738/M-SDE2E3FGHIRWXY/LB1

Departure

Time N/A
Airport Helsinki Vantaa Airport (EFHK)

Arrival

Time 2026-04-24 11:36
Airport Warsaw Modlin Airport (EPMO)
Time Latitude Longitude Altitude Speed Heading
2026-04-24 10:27 59.87275 24.63510 18633 ft 438 kts 159°
2026-04-24 10:27 59.84366 24.65209 19325 ft 440 kts 171°
2026-04-24 10:27 59.81315 24.65894 19911 ft 441 kts 182°
2026-04-24 10:28 59.78297 24.65570 20511 ft 440 kts 192°
2026-04-24 10:28 59.75306 24.64350 21058 ft 440 kts 200°
2026-04-24 10:28 59.72378 24.62664 21621 ft 442 kts 203°
2026-04-24 10:28 59.69426 24.60845 22197 ft 445 kts 203°
2026-04-24 10:29 59.66455 24.59051 22756 ft 449 kts 202°
2026-04-24 10:29 59.63463 24.57408 23294 ft 453 kts 200°
2026-04-24 10:29 59.60376 24.55906 23841 ft 457 kts 199°
2026-04-24 10:29 59.57262 24.54518 24361 ft 461 kts 198°
2026-04-24 10:30 59.54165 24.53217 24933 ft 463 kts 197°
2026-04-24 10:30 59.50996 24.51934 25394 ft 468 kts 197°
2026-04-24 10:30 59.47819 24.50671 25924 ft 470 kts 197°
2026-04-24 10:30 59.44596 24.49404 26370 ft 475 kts 197°
2026-04-24 10:31 59.41347 24.48134 26887 ft 477 kts 197°
2026-04-24 10:31 59.38091 24.46866 27347 ft 480 kts 197°
2026-04-24 10:31 59.34846 24.45606 27835 ft 482 kts 197°
2026-04-24 10:31 59.31545 24.44326 28285 ft 485 kts 197°
2026-04-24 10:32 59.28222 24.43037 28753 ft 488 kts 196°
2026-04-24 10:32 59.24903 24.41752 29184 ft 491 kts 197°
2026-04-24 10:32 59.21555 24.40457 29618 ft 493 kts 197°
2026-04-24 10:32 59.18208 24.39163 30012 ft 497 kts 196°
2026-04-24 10:33 59.14806 24.37850 30445 ft 499 kts 197°
2026-04-24 10:33 59.11440 24.36558 31093 ft 495 kts 196°
2026-04-24 10:33 59.08077 24.35273 31705 ft 492 kts 196°
2026-04-24 10:33 59.04695 24.33981 32229 ft 491 kts 195°
2026-04-24 10:34 59.01365 24.32709 32730 ft 489 kts 195°
2026-04-24 10:34 58.98023 24.31434 33198 ft 488 kts 195°
2026-04-24 10:34 58.94692 24.30163 33648 ft 487 kts 195°
2026-04-24 10:34 58.91395 24.28905 34111 ft 486 kts 195°
2026-04-24 10:35 58.88099 24.27653 34615 ft 483 kts 195°
2026-04-24 10:35 58.84808 24.26406 34902 ft 483 kts 195°
2026-04-24 10:35 58.81513 24.25160 35225 ft 481 kts 195°
2026-04-24 10:35 58.78273 24.23936 35500 ft 481 kts 195°
2026-04-24 10:36 58.74968 24.22689 35746 ft 481 kts 195°
2026-04-24 10:36 58.71719 24.21466 35971 ft 482 kts 195°
2026-04-24 10:36 58.68447 24.20228 36151 ft 483 kts 195°
2026-04-24 10:36 58.65158 24.18988 36330 ft 484 kts 194°
2026-04-24 10:37 58.61825 24.17740 36582 ft 484 kts 194°
2026-04-24 10:37 58.58555 24.16521 36834 ft 483 kts 194°
2026-04-24 10:37 58.55261 24.15297 37092 ft 483 kts 194°
2026-04-24 10:37 58.51953 24.14071 37355 ft 483 kts 194°
2026-04-24 10:38 58.48663 24.12853 37610 ft 483 kts 194°
2026-04-24 10:38 58.45385 24.11643 37797 ft 484 kts 194°
2026-04-24 10:38 58.42091 24.10428 37802 ft 484 kts 194°
2026-04-24 10:39 58.35543 24.08023 37822 ft 480 kts 194°
2026-04-24 10:39 58.28956 24.05609 37819 ft 481 kts 194°
2026-04-24 10:40 58.22389 24.03206 37820 ft 481 kts 194°
2026-04-24 10:40 58.15864 24.00831 37822 ft 479 kts 194°
2026-04-24 10:41 58.09351 23.98467 37823 ft 480 kts 194°
2026-04-24 10:41 58.02781 23.96091 37820 ft 479 kts 194°
2026-04-24 10:42 57.96268 23.93745 37831 ft 479 kts 194°
2026-04-24 10:42 57.89736 23.91402 37831 ft 478 kts 194°
2026-04-24 10:43 57.83174 23.89156 37833 ft 479 kts 193°
2026-04-24 10:43 57.76643 23.87022 37832 ft 479 kts 193°
2026-04-24 10:44 57.70093 23.84900 37829 ft 478 kts 193°
2026-04-24 10:44 57.63509 23.82764 37833 ft 478 kts 193°
2026-04-24 10:45 57.56963 23.80638 37829 ft 477 kts 193°
2026-04-24 10:45 57.50406 23.78509 37840 ft 478 kts 193°
2026-04-24 10:46 57.43848 23.76389 37838 ft 477 kts 193°
2026-04-24 10:46 57.37315 23.74281 37832 ft 478 kts 193°
2026-04-24 10:47 57.30814 23.72192 37837 ft 476 kts 193°
2026-04-24 10:47 57.24306 23.70107 37839 ft 476 kts 193°
2026-04-24 10:48 57.17746 23.68012 37843 ft 477 kts 193°
2026-04-24 10:48 57.11263 23.65949 37844 ft 476 kts 193°
2026-04-24 10:49 57.04725 23.63879 37845 ft 475 kts 193°
2026-04-24 10:49 56.98182 23.61816 37845 ft 475 kts 193°
2026-04-24 10:50 56.91665 23.59765 37847 ft 475 kts 193°
2026-04-24 10:50 56.85175 23.57730 37850 ft 474 kts 193°
2026-04-24 10:51 56.78670 23.55700 37846 ft 477 kts 193°
2026-04-24 10:51 56.72159 23.53673 37849 ft 475 kts 193°
2026-04-24 10:52 56.65624 23.51648 37846 ft 475 kts 194°
2026-04-24 10:52 56.59153 23.49648 37845 ft 476 kts 193°
2026-04-24 10:53 56.52617 23.47636 37850 ft 474 kts 194°
2026-04-24 10:53 56.46125 23.45643 37848 ft 475 kts 193°
2026-04-24 10:54 56.39629 23.43655 37854 ft 474 kts 194°
2026-04-24 10:54 56.33123 23.41784 37855 ft 475 kts 191°
2026-04-24 10:55 56.26510 23.40482 37858 ft 477 kts 189°
2026-04-24 10:55 56.19953 23.39392 37852 ft 476 kts 188°
2026-04-24 10:56 56.13334 23.38267 37859 ft 476 kts 189°
2026-04-24 10:56 56.06770 23.37101 37866 ft 475 kts 189°
2026-04-24 10:57 56.00215 23.35906 37861 ft 476 kts 189°
2026-04-24 10:57 55.93617 23.34693 37864 ft 476 kts 188°
2026-04-24 10:58 55.87053 23.33487 37869 ft 475 kts 188°
2026-04-24 10:58 55.80469 23.32281 37869 ft 476 kts 189°
2026-04-24 10:59 55.73909 23.31084 37864 ft 475 kts 189°
2026-04-24 10:59 55.67364 23.29891 37866 ft 476 kts 188°
2026-04-24 11:00 55.60757 23.28692 37865 ft 474 kts 188°
2026-04-24 11:00 55.54202 23.27509 37871 ft 475 kts 189°
2026-04-24 11:01 55.47622 23.26322 37859 ft 475 kts 188°
2026-04-24 11:01 55.41057 23.25145 37861 ft 475 kts 189°
2026-04-24 11:02 55.34488 23.23970 37861 ft 476 kts 189°
2026-04-24 11:02 55.27914 23.22780 37867 ft 476 kts 189°
2026-04-24 11:03 55.21333 23.21609 37875 ft 476 kts 189°
2026-04-24 11:03 55.14742 23.20450 37876 ft 475 kts 189°
2026-04-24 11:04 55.08213 23.19303 37874 ft 476 kts 189°
2026-04-24 11:04 55.01623 23.18147 37884 ft 475 kts 189°
2026-04-24 11:05 54.95062 23.16995 37882 ft 477 kts 189°
2026-04-24 11:05 54.88468 23.15844 37879 ft 475 kts 189°
2026-04-24 11:06 54.81863 23.14693 37888 ft 476 kts 189°
2026-04-24 11:06 54.75304 23.13551 37891 ft 477 kts 189°
2026-04-24 11:07 54.65415 23.11842 37887 ft 476 kts 189°
2026-04-24 11:07 54.58857 23.10714 37897 ft 476 kts 189°
2026-04-24 11:08 54.52275 23.09584 37892 ft 478 kts 189°
2026-04-24 11:08 54.45653 23.08452 37898 ft 477 kts 189°
2026-04-24 11:09 54.39045 23.07327 37902 ft 478 kts 189°
2026-04-24 11:09 54.32437 23.05992 37907 ft 476 kts 194°
2026-04-24 11:10 54.26104 23.03106 37915 ft 471 kts 204°
2026-04-24 11:10 54.20007 22.99147 37913 ft 468 kts 207°
2026-04-24 11:11 54.13982 22.94970 37912 ft 467 kts 208°
2026-04-24 11:11 54.07991 22.90831 37919 ft 468 kts 206°
2026-04-24 11:12 54.01741 22.87567 37889 ft 473 kts 200°
2026-04-24 11:12 53.98687 22.85721 37553 ft 461 kts 211°
2026-04-24 11:12 53.95894 22.83140 36789 ft 455 kts 219°
2026-04-24 11:13 53.93297 22.80098 36108 ft 453 kts 224°
2026-04-24 11:13 53.90839 22.76859 35676 ft 447 kts 227°
2026-04-24 11:13 53.88452 22.73582 35324 ft 440 kts 227°
2026-04-24 11:13 53.86083 22.70299 34826 ft 438 kts 228°
2026-04-24 11:14 53.83721 22.67044 34243 ft 436 kts 227°
2026-04-24 11:14 53.81402 22.63894 33688 ft 431 kts 227°
2026-04-24 11:14 53.79058 22.60746 33095 ft 426 kts 227°
2026-04-24 11:14 53.76756 22.57693 32517 ft 422 kts 227°
2026-04-24 11:15 53.74435 22.54637 31917 ft 418 kts 227°
2026-04-24 11:15 53.72166 22.51668 31271 ft 416 kts 227°
2026-04-24 11:15 53.69886 22.48697 30660 ft 412 kts 227°
2026-04-24 11:15 53.67651 22.45801 30177 ft 406 kts 227°
2026-04-24 11:16 53.65401 22.42892 29699 ft 402 kts 227°
2026-04-24 11:16 53.63202 22.40055 29238 ft 398 kts 226°
2026-04-24 11:16 53.61042 22.37271 28778 ft 395 kts 227°
2026-04-24 11:16 53.58873 22.34482 28318 ft 391 kts 226°
2026-04-24 11:17 53.56700 22.31689 27856 ft 388 kts 225°
2026-04-24 11:17 53.54575 22.28961 27397 ft 385 kts 225°
2026-04-24 11:17 53.52445 22.26231 26945 ft 383 kts 225°
2026-04-24 11:17 53.50322 22.23510 26491 ft 386 kts 225°
2026-04-24 11:18 53.48192 22.20780 26028 ft 387 kts 225°
2026-04-24 11:18 53.46057 22.18053 25547 ft 385 kts 225°
2026-04-24 11:18 53.43948 22.15369 25092 ft 382 kts 225°
2026-04-24 11:18 53.41835 22.12686 24628 ft 379 kts 225°
2026-04-24 11:19 53.39758 22.10052 24168 ft 376 kts 225°
2026-04-24 11:19 53.37683 22.07422 23714 ft 373 kts 224°
2026-04-24 11:19 53.35615 22.04802 23254 ft 371 kts 224°
2026-04-24 11:19 53.33590 22.02238 22805 ft 368 kts 224°
2026-04-24 11:20 53.31554 21.99665 22350 ft 366 kts 224°
2026-04-24 11:20 53.29533 21.97113 21889 ft 364 kts 224°
2026-04-24 11:20 53.27513 21.94566 21435 ft 361 kts 224°
2026-04-24 11:20 53.25532 21.92070 20994 ft 359 kts 224°
2026-04-24 11:21 53.23549 21.89573 20553 ft 357 kts 224°
2026-04-24 11:21 53.21577 21.87095 20107 ft 355 kts 223°
2026-04-24 11:21 53.19589 21.84599 19664 ft 353 kts 223°
2026-04-24 11:21 53.17642 21.82158 19219 ft 352 kts 223°
2026-04-24 11:22 53.15686 21.79709 18776 ft 350 kts 223°
2026-04-24 11:22 53.13749 21.77286 18348 ft 348 kts 223°
2026-04-24 11:22 53.11838 21.74895 17920 ft 347 kts 223°
2026-04-24 11:22 53.09914 21.72494 17485 ft 346 kts 223°
2026-04-24 11:23 53.07991 21.70095 17045 ft 344 kts 223°
2026-04-24 11:23 53.06090 21.67726 16610 ft 343 kts 222°
2026-04-24 11:23 53.04166 21.65335 16174 ft 342 kts 222°
2026-04-24 11:23 53.02287 21.63002 15749 ft 341 kts 222°
2026-04-24 11:24 53.00379 21.60636 15311 ft 339 kts 222°
2026-04-24 11:24 52.98486 21.58290 14864 ft 338 kts 222°
2026-04-24 11:24 52.96620 21.55981 14439 ft 335 kts 222°
2026-04-24 11:24 52.94778 21.53707 14016 ft 331 kts 222°
2026-04-24 11:25 52.92935 21.51433 13595 ft 328 kts 221°
2026-04-24 11:25 52.91113 21.49185 13177 ft 325 kts 221°
2026-04-24 11:25 52.89308 21.46961 12760 ft 322 kts 221°
2026-04-24 11:25 52.87530 21.44772 12346 ft 318 kts 221°
2026-04-24 11:26 52.85756 21.42590 11935 ft 315 kts 221°
2026-04-24 11:26 52.84000 21.40432 11523 ft 311 kts 221°
2026-04-24 11:26 52.82302 21.38349 11133 ft 305 kts 221°
2026-04-24 11:26 52.80607 21.36271 10740 ft 300 kts 221°
2026-04-24 11:27 52.78938 21.34227 10352 ft 295 kts 220°
2026-04-24 11:27 52.77305 21.32228 9978 ft 293 kts 220°
2026-04-24 11:27 52.75658 21.30209 9592 ft 298 kts 220°
2026-04-24 11:27 52.73987 21.28165 9206 ft 297 kts 219°
2026-04-24 11:28 52.72358 21.26178 8830 ft 295 kts 219°
2026-04-24 11:28 52.70708 21.24169 8445 ft 294 kts 219°
2026-04-24 11:28 52.69069 21.22173 8061 ft 292 kts 219°
2026-04-24 11:28 52.67424 21.20171 7679 ft 291 kts 219°
2026-04-24 11:29 52.65817 21.18219 7308 ft 289 kts 219°
2026-04-24 11:29 52.64194 21.16249 6932 ft 287 kts 219°
2026-04-24 11:29 52.62607 21.14325 6559 ft 283 kts 219°
2026-04-24 11:29 52.61032 21.12418 6200 ft 278 kts 219°
2026-04-24 11:30 52.59491 21.10553 5844 ft 273 kts 219°
2026-04-24 11:30 52.57987 21.08734 5584 ft 265 kts 219°
2026-04-24 11:30 52.56531 21.06977 5370 ft 256 kts 219°
2026-04-24 11:30 52.55117 21.05268 5144 ft 248 kts 219°
2026-04-24 11:31 52.53742 21.03607 4936 ft 241 kts 219°
2026-04-24 11:31 52.52410 21.01998 4670 ft 239 kts 219°
2026-04-24 11:31 52.51069 21.00377 4388 ft 236 kts 219°
2026-04-24 11:31 52.49838 20.98674 4155 ft 230 kts 229°
2026-04-24 11:32 52.48847 20.96648 3922 ft 224 kts 241°
2026-04-24 11:32 52.48165 20.94402 3692 ft 219 kts 253°
2026-04-24 11:32 52.47761 20.92033 3480 ft 213 kts 261°
2026-04-24 11:32 52.47479 20.89675 3260 ft 208 kts 262°
2026-04-24 11:33 52.47238 20.87386 3071 ft 202 kts 263°
2026-04-24 11:33 52.47010 20.85135 2826 ft 201 kts 263°
2026-04-24 11:33 52.46788 20.82881 2530 ft 198 kts 264°
2026-04-24 11:33 52.46575 20.80670 2220 ft 194 kts 263°
2026-04-24 11:34 52.46377 20.78605 1931 ft 177 kts 264°
2026-04-24 11:34 52.46196 20.76691 1680 ft 159 kts 264°
2026-04-24 11:34 52.46037 20.74999 1455 ft 142 kts 264°
2026-04-24 11:34 52.45893 20.73425 1228 ft 139 kts 263°
2026-04-24 11:35 52.45750 20.71875 1014 ft 139 kts 264°
2026-04-24 11:35 52.45610 20.70326 814 ft 135 kts 262°
2026-04-24 11:35 52.45449 20.68808 592 ft 135 kts 261°
2026-04-24 11:35 52.45315 20.67294 391 ft 133 kts 262°
2026-04-24 11:36 52.45184 20.65911 333 ft 96 kts 261°
2026-04-24 11:36 52.45121 20.65234 333 ft 28 kts 260°
2026-04-24 11:36 52.45093 20.64922 334 ft 26 kts 262°
2026-04-24 11:36 52.45067 20.64630 332 ft 25 kts 261°
2026-04-24 11:37 52.45041 20.64418 332 ft 12 kts 236°
2026-04-24 11:37 52.44965 20.64387 334 ft 10 kts 180°
2026-04-24 11:37 52.44888 20.64381 334 ft 13 kts 183°
2026-04-24 11:37 52.44769 20.64372 334 ft 14 kts 183°
2026-04-24 11:38 52.44715 20.64394 335 ft 6 kts 121°
2026-04-24 11:38 52.44716 20.64469 336 ft 8 kts 83°
2026-04-24 11:38 52.44728 20.64593 338 ft 13 kts 81°
2026-04-24 11:38 52.44747 20.64793 338 ft 21 kts 81°
2026-04-24 11:39 52.44771 20.65039 337 ft 22 kts 82°
2026-04-24 11:39 52.44790 20.65238 337 ft 7 kts 83°
2026-04-24 11:39 52.44776 20.65266 337 ft 2 kts 154°
2026-04-24 11:39 52.44764 20.65269 337 ft 2 kts 185°
2026-04-24 11:40 52.44756 20.65266 338 ft 0 kts 198°
2026-04-24 11:40 52.44747 20.65258 338 ft 1 kts 205°
2026-04-24 11:40 52.44746 20.65258 338 ft 0 kts 205°